Terug naar catalogus

THOR ABLESTAR DEB

ActiefLEO
NORAD 3932·DEBRIS·🇺🇸 United States

Gelanceerd Jun 29, 1961 vanaf Cape Canaveral Space Force Station

Loading…

Volgende Passages (komende 24 uur)

TLE

VersSource: Space-Track

Epoch: Sep 14, 2026, 07:41 UTC

1 03932U 61015JG  26257.32016528  .00000210  00000-0  52107-3 0  9990
2 03932  65.7974 225.2408 0273309  74.4658 356.9741 13.26049185163620

Volg THOR ABLESTAR DEB in realtime met AllMySat

Download on the App Store